Regional Weather Roundup
Issued by NWS

Home | Current Version | Previous Version | Graphics & Text | Print | Product List | Glossary On
Versions: 1 2 3 4 5 6 7 8 9 10 11 12 13 14 15 16 17 18 19 20 21 22 23 24 25 26 27 28 29 30 31 32 33 34 35 36 37 38 39 40 41 42 43 44 45 46 47 48 49 50
000
ASUS44 KMEG 280300
RWRTN
TENNESSEE HOURLY STATE WEATHER ROUNDUP
NATIONAL WEATHER SERVICE MEMPHIS TN
1000 PM CDT MON MAR 27 2017

TNZ002-004-019-021-049-052-054-088>092-280400-
WEST TENNESSEE

CITY           SKY/WX    TMP DP  RH WIND       PRES   REMARKS
MEMPHIS INTL   PTCLDY    66  60  81 NE8       29.88R
NWS MEMPHIS      N/A     65 N/A N/A MISG        N/A
JACKSON        PTCLDY    58  58 100 CALM      29.88R
DYERSBURG      CLEAR     57  56  96 CALM      29.89R FOG
PARIS          CLOUDY    48  48 100 CALM      29.88S VSB 1/4
$$

TNZ008-025-027-028-033-062-065-066-280400-
NORTH MIDDLE TENNESSEE

CITY           SKY/WX    TMP DP  RH WIND       PRES   REMARKS
NASHVILLE      CLOUDY    60  58  92 CALM      29.88R
CLARKSVILLE    MOCLDY    56  54  93 NW3       29.88R
SMYRNA         MOCLDY    59  58  96 NW5       29.88S
CROSSVILLE     RAIN      55  54  96 N3        30.00R FOG
$$

TNZ061-075-076-078-094-096-097-280400-
SOUTH MIDDLE TENNESSEE

CITY           SKY/WX    TMP DP  RH WIND       PRES   REMARKS
TULLAHOMA      MOCLDY    57  57 100 SE12      29.89F
WINCHESTER     CLOUDY    57  57 100 N3        29.96R
COLUMBIA       MOCLDY   N/A N/A N/A CALM      29.87R
SHELBYVILLE    CLEAR     61  59  94 S6        29.90R
$$

TNZ017-018-042-046-047-280400-
NORTHEAST TENNESSEE

CITY           SKY/WX    TMP DP  RH WIND       PRES   REMARKS
TRI CITIES     HVY RAIN  63  55  75 SW23G32   29.97R
$$

TNZ012-013-036-069-073-074-280400-
CENTRAL EAST TENNESSEE

CITY           SKY/WX    TMP DP  RH WIND       PRES   REMARKS
KNOXVILLE      NOT AVBL
OAK RIDGE      CLOUDY    60  57  89 CALM      29.97R
GATLINBURG     MOCLDY    57  55  94 SE5       29.96F
$$

TNZ083-085-099-280400-
SOUTHEAST TENNESSEE

CITY           SKY/WX    TMP DP  RH WIND       PRES   REMARKS
CHATTANOOGA    CLOUDY    62  58  86 S5        29.92F
$$

SKY/WX REPORTED AS FAIR MEANS FEW OR NO CLOUDS BELOW
12 THOUSAND FEET.





USA.gov is the U.S. government's official web portal to all federal, state and local government web resources and services.